User: anonymous   Login
Location: Unspecified
(0.0000°N, 0.0000°E)
Time: 03:02:46
(UTC+00:00)
Language:

UFO F7 - Orbit

View from above orbital plane
View from above orbital plane
View from above satellite
View from above satellite

Ground track
Ground track

The orbit data is extracted from the following two-line orbital elements,

1 23967U 96042A   18094.72114906 0.00000000  00000-0  00000-0 0    03
2 23967   8.5928  30.3330 0006264 347.9288  12.0682  1.00181372    04
Epoch (UTC): 04 April 2018 17:18:27
Eccentricity: 0.0006264
inclination: 8.5928°
perigee height: 35785 km
apogee height: 35838 km
right ascension of ascending node: 30.3330°
argument of perigee: 347.9288°
revolutions per day: 1.00181372
mean anomaly at epoch: 12.0682°
orbit number at epoch: 0

The dashed part of the orbit path shows where the satellite is in the earth's shadow,  

DLR